Temp
-15 -15 -15 -14 -14 -15 -15 -16 -15 -15 -15 -15 -15 -15 -15 -15 -15 -15 -15 -15 -15 -15 -15 -15 -15 -15 -15 -15 -15 -15 -16 -15 -15 -15 -15 -15 -15 -15
-15 -15 -14 -14 -14 -15 -16 -16 -15 -16 -15 -16 -16 -16 -16 -15 -16 -16 -15 -15 -15 -15 -15 -15 -15 -15 -16 -16 -16 -16 -16 -16 -15 -15 -16 -16 -17 -17
-15 -15 -15 -15 -15 -15 -16 -16 -16 -16 -16 -16 -16 -16 -16 -16 -16 -16 -16 -16 -16 -16 -16 -16 -16 -16 -16 -16 -16 -16 -16 -16 -16 -17 -18 -19 -19 -20
-16 -17 -16 -16 -16 -16 -16 -16 -17 -17 -17 -16 -16 -16 -16 -16 -16 -16 -17 -16 -16 -16 -16 -16 -16 -16 -16 -16 -16 -16 -17 -18 -19 -20 -21 -22 -23 -24
-17 -17 -17 -16 -16 -16 -16 -16 -17 -17 -16 -16 -16 -17 -17 -17 -17 -17 -17 -16 -16 -16 -17 -17 -17 -17 -17 -16 -17 -19 -20 -21 -22 -23 -24 -24 -24 -24
-17 -17 -17 -16 -17 -16 -17 -17 -17 -16 -16 -16 -16 -17 -17 -17 -17 -17 -17 -17 -17 -17 -17 -17 -17 -17 -17 -18 -19 -21 -22 -24 -25 -25 -25 -25 -25 -25
-17 -17 -17 -17 -17 -17 -17 -17 -16 -16 -17 -17 -17 -17 -17 -17 -17 -17 -17 -17 -18 -17 -17 -18 -18 -19 -20 -21 -22 -23 -25 -26 -26 -26 -26 -25 -25 -25
-17 -17 -17 -17 -17 -17 -17 -16 -17 -17 -17 -17 -17 -17 -18 -17 -17 -17 -18 -18 -17 -18 -18 -18 -19 -21 -22 -22 -24 -26 -27 -27 -26 -26 -26 -26 -26 -26
-17 -17 -18 -17 -18 -17 -17 -17 -17 -17 -17 -17 -18 -17 -17 -18 -18 -18 -18 -18 -18 -18 -18 -20 -21 -23 -24 -24 -26 -27 -27 -27 -27 -26 -26 -26 -26 -26
-18 -18 -18 -18 -17 -17 -17 -17 -17 -17 -18 -18 -18 -18 -18 -18 -18 -18 -18 -18 -19 -19 -20 -22 -24 -25 -26 -26 -27 -27 -27 -27 -27 -27 -26 -26 -26 -27
-18 -18 -18 -17 -17 -18 -18 -18 -18 -18 -18 -18 -18 -18 -18 -18 -18 -18 -19 -19 -20 -22 -23 -25 -26 -26 -28 -28 -27 -27 -27 -27 -27 -27 -26 -26 -27 -27
-18 -18 -17 -18 -18 -18 -18 -19 -19 -19 -19 -19 -19 -19 -19 -19 -19 -19 -19 -20 -22 -23 -25 -26 -27 -28 -29 -29 -28 -27 -27 -27 -27 -27 -27 -27 -27 -27
-18 -18 -18 -18 -18 -18 -18 -18 -18 -19 -19 -19 -19 -19 -19 -19 -19 -20 -21 -23 -24 -26 -26 -26 -28 -29 -29 -28 -28 -27 -27 -27 -27 -26 -27 -27 -27 -28
-18 -18 -18 -19 -19 -19 -19 -19 -19 -19 -19 -19 -19 -19 -20 -20 -21 -22 -24 -25 -27 -27 -27 -27 -28 -29 -29 -28 -28 -28 -27 -27 -27 -26 -27 -27 -28 -28
-19 -19 -19 -19 -19 -19 -19 -19 -20 -19 -20 -20 -20 -20 -20 -21 -22 -23 -25 -27 -27 -28 -28 -28 -29 -29 -28 -28 -28 -28 -28 -27 -26 -27 -27 -27 -28 -28
-19 -19 -20 -20 -20 -20 -20 -20 -20 -20 -20 -20 -20 -20 -21 -22 -24 -25 -27 -27 -28 -29 -29 -29 -29 -29 -28 -28 -28 -28 -27 -27 -27 -27 -28 -28 -28 -28
-19 -20 -20 -20 -20 -20 -20 -20 -20 -20 -20 -20 -21 -21 -22 -24 -25 -27 -27 -27 -28 -29 -29 -30 -30 -29 -28 -27 -27 -27 -27 -27 -27 -27 -28 -28 -28 -28
-21 -21 -21 -21 -21 -21 -21 -20 -21 -21 -21 -21 -21 -23 -24 -25 -27 -27 -27 -28 -28 -29 -29 -29 -30 -29 -29 -28 -27 -26 -26 -27 -27 -27 -27 -28 -29 -28
-21 -21 -21 -21 -21 -21 -21 -21 -21 -21 -21 -22 -23 -25 -26 -27 -27 -27 -28 -28 -28 -29 -29 -29 -29 -29 -29 -29 -28 -26 -26 -26 -27 -27 -27 -28 -28 -29
-21 -21 -21 -21 -21 -21 -21 -21 -21 -22 -22 -23 -25 -27 -27 -28 -28 -28 -28 -28 -29 -29 -29 -29 -29 -29 -29 -29 -29 -28 -26 -26 -27 -27 -27 -28 -28 -29
-22 -21 -21 -21 -22 -21 -21 -22 -22 -22 -23 -25 -27 -28 -28 -28 -28 -28 -28 -29 -29 -29 -29 -29 -29 -29 -29 -28 -28 -28 -28 -26 -26 -27 -27 -27 -28 -29
-21 -22 -22 -22 -22 -22 -22 -22 -23 -24 -25 -27 -28 -28 -28 -29 -29 -29 -29 -29 -30 -29 -29 -29 -29 -29 -29 -28 -28 -28 -28 -28 -27 -27 -27 -26 -27 -28
-22 -22 -22 -22 -22 -22 -22 -23 -24 -26 -27 -28 -28 -28 -29 -29 -29 -29 -30 -30 -30 -30 -29 -29 -29 -29 -29 -29 -28 -28 -28 -27 -27 -28 -28 -27 -26 -26
Height
5731 5735 5738 5740 5740 5740 5739 5738 5737 5733 5730 5727 5725 5721 5717 5713 5708 5703 5699 5693 5688 5683 5678 5671 5665 5658 5651 5644 5636 5628 5620 5610 5601 5591 5581 5571 5562 5554
5725 5728 5730 5732 5733 5732 5730 5728 5726 5723 5720 5717 5713 5708 5705 5699 5695 5691 5685 5679 5673 5668 5662 5654 5647 5639 5630 5622 5613 5602 5592 5580 5569 5557 5543 5530 5520 5512
5717 5719 5722 5724 5724 5722 5719 5719 5714 5712 5709 5706 5701 5698 5694 5688 5684 5678 5672 5665 5658 5651 5644 5636 5628 5619 5610 5599 5588 5575 5561 5548 5533 5519 5506 5495 5486 5477
5707 5711 5714 5714 5713 5712 5712 5711 5708 5704 5699 5695 5691 5686 5682 5678 5672 5665 5658 5650 5642 5636 5626 5616 5608 5597 5585 5572 5558 5541 5527 5512 5499 5487 5478 5469 5462 5457
5702 5704 5706 5705 5704 5703 5703 5700 5698 5693 5690 5685 5680 5675 5670 5666 5659 5651 5642 5633 5623 5615 5605 5593 5583 5571 5558 5544 5526 5510 5495 5482 5472 5465 5459 5454 5449 5444
5694 5696 5696 5694 5693 5694 5693 5691 5687 5682 5678 5674 5668 5663 5658 5651 5644 5638 5628 5616 5606 5596 5583 5568 5558 5542 5528 5512 5498 5484 5471 5461 5456 5451 5448 5444 5439 5434
5684 5685 5687 5688 5688 5686 5684 5681 5676 5672 5668 5662 5657 5650 5644 5638 5630 5621 5613 5603 5588 5578 5565 5542 5533 5513 5498 5485 5473 5461 5453 5448 5445 5442 5437 5433 5428 5424
5678 5680 5679 5680 5678 5677 5674 5669 5666 5662 5657 5651 5645 5639 5631 5624 5615 5605 5596 5584 5575 5556 5546 5522 5506 5488 5475 5465 5455 5447 5442 5439 5436 5432 5427 5423 5419 5414
5672 5672 5671 5671 5669 5667 5663 5660 5655 5651 5646 5640 5632 5625 5616 5607 5599 5589 5576 5562 5547 5533 5524 5504 5484 5467 5455 5449 5443 5438 5434 5431 5426 5422 5418 5414 5410 5406
5664 5664 5664 5663 5661 5657 5654 5649 5644 5638 5632 5624 5616 5607 5598 5590 5581 5569 5557 5544 5526 5506 5492 5481 5465 5452 5440 5435 5433 5429 5425 5421 5417 5413 5409 5406 5402 5397
5656 5658 5657 5653 5652 5648 5643 5638 5631 5624 5617 5609 5600 5592 5583 5572 5561 5549 5534 5520 5506 5487 5472 5461 5450 5442 5429 5423 5422 5421 5417 5413 5408 5405 5401 5397 5393 5389
5650 5649 5648 5645 5640 5637 5632 5626 5620 5612 5603 5594 5585 5575 5564 5552 5539 5526 5513 5497 5482 5472 5459 5453 5437 5427 5425 5416 5412 5409 5407 5404 5400 5397 5393 5390 5386 5382
5643 5639 5636 5633 5629 5624 5619 5613 5606 5599 5589 5580 5569 5557 5545 5532 5519 5503 5487 5474 5463 5454 5444 5438 5428 5419 5413 5411 5405 5400 5397 5395 5392 5389 5385 5382 5377 5373
5631 5628 5625 5622 5617 5612 5606 5599 5592 5584 5575 5564 5553 5541 5529 5514 5497 5482 5468 5458 5448 5442 5434 5423 5416 5410 5406 5403 5398 5393 5389 5386 5383 5380 5377 5374 5369 5365
5622 5620 5617 5611 5606 5600 5593 5585 5578 5569 5559 5549 5537 5525 5510 5495 5481 5469 5457 5448 5438 5428 5420 5412 5405 5401 5397 5394 5391 5386 5383 5379 5375 5372 5369 5365 5360 5356
5615 5611 5605 5601 5594 5587 5580 5572 5563 5553 5544 5533 5520 5506 5492 5478 5465 5455 5447 5438 5429 5418 5409 5402 5396 5392 5389 5385 5381 5378 5374 5372 5368 5364 5361 5357 5351 5347
5604 5599 5594 5587 5580 5573 5565 5556 5547 5537 5526 5513 5501 5489 5477 5465 5453 5442 5435 5428 5419 5411 5401 5393 5388 5383 5379 5376 5373 5368 5367 5364 5361 5358 5354 5350 5343 5338
5594 5588 5581 5575 5568 5560 5552 5542 5531 5520 5507 5495 5483 5472 5462 5451 5441 5433 5425 5417 5408 5400 5393 5387 5382 5378 5372 5366 5361 5359 5358 5356 5353 5349 5346 5342 5336 5329
5583 5576 5569 5562 5555 5546 5537 5527 5515 5503 5491 5479 5468 5457 5447 5438 5430 5422 5414 5405 5397 5390 5383 5377 5373 5369 5366 5362 5357 5349 5350 5347 5345 5340 5336 5332 5329 5322
5570 5563 5556 5548 5541 5532 5521 5511 5499 5488 5477 5465 5453 5443 5434 5426 5418 5410 5402 5395 5387 5381 5374 5367 5363 5359 5356 5355 5352 5345 5339 5339 5337 5334 5328 5323 5319 5314
5556 5549 5542 5535 5526 5517 5506 5495 5483 5473 5462 5451 5440 5431 5422 5414 5405 5397 5390 5383 5377 5372 5366 5359 5354 5350 5347 5345 5343 5338 5332 5328 5328 5326 5323 5318 5314 5308
5544 5537 5528 5520 5511 5501 5491 5480 5469 5456 5445 5435 5426 5417 5407 5398 5391 5384 5376 5371 5366 5362 5358 5352 5346 5342 5337 5334 5333 5330 5326 5321 5317 5314 5311 5310 5308 5305
5530 5523 5514 5505 5496 5486 5476 5464 5452 5440 5429 5420 5410 5401 5391 5382 5375 5368 5362 5358 5356 5353 5349 5345 5339 5334 5329 5325 5322 5320 5316 5313 5310 5306 5296 5292 5293 5292
Wind_Speed
37 34 34 35 29 34 35 38 50 42 46 52 55 52 48 48 50 52 53 55 56 58 61 65 69 71 74 76 79 81 84 88 90 93 96 100 102 104
33 33 33 30 29 35 45 47 45 48 49 52 57 48 48 48 50 53 55 58 61 64 67 71 74 77 79 82 86 89 91 94 97 99 100 102 105 106
30 27 29 30 34 39 50 47 45 47 52 56 45 46 47 49 52 55 58 62 66 69 73 75 77 81 84 87 90 94 98 98 96 97 99 98 94 90
32 31 32 34 40 47 43 46 46 50 48 47 45 46 48 51 55 58 62 67 71 74 76 79 82 86 88 92 96 97 94 92 90 86 82 70 61 56
30 31 33 40 46 47 47 48 44 39 40 43 45 47 50 54 59 62 67 72 74 76 80 84 87 91 95 97 94 89 85 81 76 63 49 43 41 43
31 33 42 43 44 47 45 41 39 40 43 47 48 51 56 59 63 67 70 73 77 80 84 89 92 95 94 89 85 78 72 61 48 39 37 40 40 40
39 41 40 42 43 43 36 38 40 43 47 49 52 56 59 63 67 69 71 75 80 83 87 92 93 90 86 82 75 66 50 41 35 37 38 37 34 32
38 39 37 43 37 34 37 39 43 47 49 52 56 58 64 66 68 71 75 79 81 88 90 92 88 82 78 73 61 41 36 34 37 37 36 32 29 29
33 35 30 31 32 36 39 43 47 50 52 55 59 62 64 67 72 75 79 84 88 92 94 83 79 74 71 62 44 33 32 35 36 35 32 28 28 29
25 26 28 31 35 39 43 46 50 53 56 60 63 65 68 71 75 79 84 88 92 91 87 77 71 67 60 47 33 30 32 33 34 32 28 27 29 31
22 26 30 33 38 42 45 49 51 55 58 61 64 67 70 75 79 84 89 92 87 79 75 68 63 56 44 37 32 29 32 31 31 28 27 28 30 30
25 29 33 38 40 44 47 49 53 56 59 62 66 70 75 79 84 89 91 84 79 71 67 60 56 47 31 32 33 34 31 30 26 26 27 29 30 30
29 32 36 40 43 46 50 52 55 57 60 63 68 74 79 84 88 89 82 76 68 62 61 58 47 36 29 28 32 34 32 26 24 25 27 29 31 32
31 35 40 43 46 49 52 54 57 60 63 67 72 77 82 88 86 79 72 64 58 56 55 54 41 30 26 28 30 32 31 26 25 27 28 29 32 32
35 39 43 46 49 51 53 57 60 63 66 71 76 81 86 86 78 69 61 53 54 54 53 50 38 29 26 27 26 30 27 26 27 29 30 31 33 34
39 43 45 48 50 53 56 60 63 67 70 75 80 85 86 78 69 60 50 49 51 50 49 47 38 32 27 27 28 26 26 24 27 30 31 31 35 36
42 44 47 50 52 56 60 63 67 71 75 80 84 86 79 67 58 50 47 49 49 46 44 43 40 35 32 29 28 26 23 26 28 29 30 30 34 35
43 45 48 51 55 59 63 67 70 75 79 83 85 79 68 57 49 45 48 50 47 44 41 40 38 34 33 33 32 26 23 25 28 29 29 29 31 34
44 47 51 54 58 62 67 69 74 77 80 82 79 67 56 49 46 48 50 51 45 42 40 40 37 33 29 28 30 33 27 28 29 30 31 31 30 32
46 50 54 58 62 66 69 73 76 80 81 78 66 56 52 50 51 52 51 52 41 39 40 38 35 32 29 26 26 32 32 28 28 27 30 32 32 32
51 55 58 62 66 69 73 76 79 80 78 67 58 55 54 54 54 51 52 51 38 35 35 33 33 32 30 28 26 29 33 33 30 27 27 27 27 29
54 58 62 66 70 72 75 78 79 76 69 61 59 59 59 58 55 55 52 45 34 33 33 32 32 32 33 32 28 27 28 32 34 32 32 27 23 21
58 62 66 70 73 75 77 78 76 71 64 62 65 65 63 58 55 51 46 36 30 30 31 31 32 32 33 33 31 28 30 30 30 30 37 38 32 28
Wind_Direction
236 240 247 250 252 267 264 267 277 278 278 279 287 293 292 292 296 298 297 296 295 295 295 296 296 295 295 295 295 295 296 295 293 290 288 285 282 278
234 237 245 249 252 261 268 269 280 277 283 287 292 291 293 297 298 297 296 296 296 297 298 298 297 297 298 299 300 299 297 296 293 291 287 283 280 278
233 241 246 250 257 262 269 287 282 283 285 292 289 291 296 297 296 295 296 297 299 299 299 299 300 301 302 301 301 300 299 297 292 288 285 286 286 286
232 242 246 254 259 265 278 282 280 281 284 289 291 296 296 295 295 295 298 300 299 300 301 302 304 303 303 304 304 303 297 293 291 290 290 292 291 288
232 240 252 258 264 273 277 280 288 290 290 293 293 293 293 294 295 299 301 301 302 304 306 305 307 307 307 309 305 299 298 296 295 295 293 292 290 292
241 244 250 256 265 274 286 286 286 292 294 292 293 294 295 298 301 302 303 305 307 307 308 309 310 311 311 306 303 302 299 297 296 295 292 293 294 294
240 248 258 268 277 283 282 287 292 294 292 294 295 297 300 301 302 304 306 307 307 309 312 313 314 309 306 307 307 304 299 296 295 295 297 298 297 298
247 258 267 281 279 281 285 290 292 292 293 294 298 300 300 302 305 308 308 309 310 312 315 314 311 307 308 310 306 300 293 293 298 298 299 299 300 303
256 269 275 279 282 284 290 290 291 292 295 297 298 301 304 307 309 310 312 313 314 315 317 312 310 309 309 308 302 292 288 296 298 300 300 301 303 306
270 269 277 280 284 288 288 290 293 297 298 302 305 307 308 310 311 313 314 315 317 315 315 312 311 310 306 304 294 287 293 298 299 299 298 302 305 308
268 274 278 284 286 286 292 293 296 300 303 304 307 309 310 313 315 316 317 318 317 312 311 311 311 308 302 297 292 290 297 298 297 295 298 302 304 306
274 279 282 283 287 290 293 295 300 302 306 308 310 313 315 316 318 319 320 317 314 311 311 312 311 305 295 295 298 298 302 301 294 291 295 298 302 303
273 279 284 288 290 293 296 299 302 306 309 312 314 316 317 319 320 321 319 316 314 312 312 315 311 303 296 291 299 300 303 303 295 295 296 301 302 303
284 288 290 290 296 297 300 304 307 310 312 314 316 318 319 321 322 319 316 313 311 312 314 316 310 301 293 297 299 300 303 301 295 297 301 303 303 304
289 290 291 296 297 300 305 308 310 312 315 316 318 319 321 323 320 316 312 311 313 314 317 318 311 305 296 298 297 298 299 298 296 299 303 304 306 309
290 291 295 297 301 306 308 311 313 315 316 318 320 322 324 322 316 313 310 313 315 314 316 318 312 308 301 301 299 302 299 294 294 296 300 302 305 306
292 296 298 301 307 310 312 313 314 316 319 321 323 324 323 318 313 310 312 315 315 312 310 313 311 309 304 301 302 300 299 294 294 295 300 302 301 304
295 297 301 305 309 312 313 314 317 320 322 324 325 323 320 315 312 310 313 316 315 312 308 307 307 304 304 303 305 298 299 295 295 299 303 303 303 307
296 301 304 308 312 313 314 317 319 321 323 325 323 321 318 316 312 311 314 318 314 312 308 305 304 301 300 297 297 297 298 298 299 304 308 309 309 307
300 304 309 312 313 315 317 318 320 322 323 323 320 318 317 314 310 310 313 317 310 311 311 306 303 303 300 296 294 293 295 296 299 304 306 308 309 306
305 308 310 313 315 316 317 319 320 321 322 319 316 315 313 311 311 312 313 315 304 308 315 309 305 303 301 299 297 294 293 292 296 301 301 304 305 305
306 310 313 314 314 315 317 318 319 320 318 317 316 316 314 311 310 310 311 309 296 303 312 314 310 307 304 301 299 292 288 290 297 303 302 306 307 303
310 313 313 313 314 315 317 318 319 318 316 316 316 315 313 311 311 310 308 300 289 299 307 312 314 309 305 301 300 295 289 288 293 303 307 309 309 311